Regional Weather Roundup
Issued by NWS

Home | Current Version | Previous Version | Graphics & Text | Print | Product List | Glossary On
Versions: 1 2 3 4 5 6 7 8 9 10 11 12 13 14 15 16 17 18 19 20 21 22 23 24 25 26 27 28 29 30 31 32 33 34 35 36 37 38 39 40 41 42 43 44 45 46 47 48 49 50
000
ASUS45 KBOI 290610
RWRID

IDAHO REGIONAL WEATHER ROUNDUP
NATIONAL WEATHER SERVICE BOISE ID
1200 AM MDT WED JUL 29 2015

NOTE: "FAIR" INDICATES FEW OR NO CLOUDS BELOW 12000 FEET
WITH NO SIGNIFICANT WEATHER AND/OR OBSTRUCTIONS TO VISIBILITY

IDZ012-014-290700-
SOUTHWEST IDAHO


CITY           SKY/WX    TMP DP  RH WIND       PRES   REMARKS
BOISE          CLEAR     66  37  34 CALM      30.20S
CALDWELL       CLEAR     59  37  44 CALM      30.20S
$$

IDZ016-017-290700-
SOUTHCENTRAL IDAHO


CITY           SKY/WX    TMP DP  RH WIND       PRES   REMARKS
BURLEY         CLEAR     52  39  61 S5        30.26S
JEROME         CLEAR     53  32  44 E5        30.26F
TWIN FALLS     CLEAR     52  31  44 S5        30.24S
$$

IDZ019>023-290700-
SOUTHEAST IDAHO


CITY           SKY/WX    TMP DP  RH WIND       PRES   REMARKS
IDAHO FALLS    CLEAR     49  41  74 N5        30.32S
POCATELLO      CLEAR     50  37  61 CALM      30.29F
REXBURG        PTCLDY    50  40  68 NW5       30.32S
$$

IDZ006-010-011-018-031-032-290700-
CENTRAL IDAHO MOUNTAINS


CITY           SKY/WX    TMP DP  RH WIND       PRES   REMARKS
MCCALL         CLEAR     55  40  56 N3        30.29S
HAILEY         CLEAR     50  37  62 NW8       30.35R
STANLEY          N/A     42  33  70 S6        30.39R
SALMON         CLEAR     52  43  71 CALM      30.28S
CHALLIS        CLEAR     51  43  74 SE3       30.32R
$$

IDZ002-004-006-007-026-290700-
NORTHERN IDAHO


CITY           SKY/WX    TMP DP  RH WIND       PRES   REMARKS
LEWISTON       CLEAR     69  33  26 S5        30.15S
LOWELL           N/A     57  50  77 N3        30.24R
COEUR D`ALENE  CLEAR     61  43  51 SE3       30.19R
MULLAN PASS    CLEAR     53  33  46 SW6       30.35S
$$



USA.gov is the U.S. government's official web portal to all federal, state and local government web resources and services.